Oscoda, MI

1:31 AM EDT on October 19, 2017 (GMT -0400)
Oscoda-Wurtsmith

Weather History for KOSC - May, 2012

Change the Weather History Date:

Friday, May 4, 2012

  Actual Average Record
Temperature  
Mean Temperature 54 °F -  
Max Temperature 61 °F 59 °F 80 °F (2000)
Min Temperature 46 °F 39 °F 23 °F (2004)
Degree Days  
Heating Degree Days 10    
Growing Degree Days 4 (Base 50)    
Moisture  
Dew Point 51 °F    
Average Humidity 87    
Maximum Humidity 99    
Minimum Humidity 59    
Precipitation  
Precipitation 0.00 in - - ()
Sea Level Pressure  
Sea Level Pressure 29.99 in    
Wind  
Wind Speed 4 mph (NNE)    
Max Wind Speed 15 mph    
Max Gust Speed 17 mph    
Visibility 5 miles    
Events Fog    
Averages and records for this station are not official NWS values.
T = Trace of Precipitation, MM = Missing Value Source: NWS Daily Summary

Daily Weather History Graph

Daily Weather History Graph

Search for Another Location

Airport or City:

Trip Planner

Search our weather history database for the weather conditions in past years. The results will help you decide how hot, cold, wet, or windy it might be!

Date:

Astronomy

May. 04, 2012 Rise Set
Actual Time 6:19 AM EDT 8:42 PM EDT
Civil Twilight 5:46 AM EDT 9:14 PM EDT
Nautical Twilight 5:06 AM EDT 9:55 PM EDT
Astronomical Twilight 4:21 AM EDT 10:40 PM EDT
Moon 7:17 PM EDT (5/4) 5:02 AM EDT (5/4)
Length of Visible Light 15h 27m
Length of Day
14h 22m
Waxing Gibbous, 97% of the Moon is Illuminated
May 4
Waxing Gibbous
May 5
Full
May 12
Last Quarter
May 20
New
May 28
First Quarter

Hourly Weather History & Observations

Time (EDT) Temp. Windchill Dew Point Humidity Pressure Visibility Wind Dir Wind Speed Gust Speed Precip Events Conditions
12:14 AM 57.4 °F - 56.8 °F 98% 29.89 in 0.2 mi North - - N/A Fog Fog
12:33 AM 56.3 °F - 55.8 °F 98% 29.89 in 0.8 mi East 3.5 mph - N/A   Overcast
12:54 AM 55.4 °F - 54.9 °F 98% 29.89 in 0.5 mi East 3.5 mph - N/A Fog Fog
1:13 AM 55.0 °F - 54.5 °F 98% 29.89 in 0.2 mi Calm Calm - N/A Fog Fog
1:33 AM 55.4 °F - 54.7 °F 97% 29.90 in 0.2 mi Calm Calm - N/A Fog Fog
1:54 AM 55.0 °F - 54.5 °F 98% 29.90 in 0.2 mi Calm Calm - N/A Fog Fog
2:14 AM 55.0 °F - 54.5 °F 98% 29.90 in 0.2 mi Calm Calm - N/A Fog Fog
2:33 AM 55.0 °F - 54.7 °F 99% 29.90 in 0.2 mi Calm Calm - N/A Fog Fog
2:54 AM 55.0 °F - 54.7 °F 99% 29.91 in 0.2 mi Calm Calm - N/A Fog Fog
3:13 AM 55.4 °F - 54.9 °F 98% 29.90 in 0.2 mi Calm Calm - N/A Fog Fog
3:33 AM 55.2 °F - 54.7 °F 98% 29.90 in 0.5 mi SSE 3.5 mph - N/A Fog Fog
3:54 AM 55.0 °F - 54.7 °F 99% 29.90 in 0.5 mi Calm Calm - N/A Fog Fog
4:13 AM 54.9 °F - 54.5 °F 99% 29.91 in 0.5 mi Calm Calm - N/A Fog Fog
4:33 AM 54.9 °F - 54.5 °F 99% 29.90 in 0.2 mi South 4.6 mph - N/A Fog Fog
4:54 AM 54.7 °F - 54.3 °F 99% 29.91 in 0.5 mi Calm Calm - N/A Fog Fog
5:13 AM 54.7 °F - 54.5 °F 99% 29.92 in 0.8 mi Calm Calm - N/A   Overcast
5:33 AM 54.7 °F - 54.5 °F 99% 29.92 in 0.5 mi Calm Calm - N/A Fog Fog
5:54 AM 55.4 °F - 55.0 °F 99% 29.93 in 0.2 mi NNW 3.5 mph - N/A Fog Fog
6:13 AM 55.2 °F - 54.9 °F 99% 29.93 in 0.2 mi Calm Calm - N/A Fog Fog
6:33 AM 55.6 °F - 55.2 °F 99% 29.93 in 0.2 mi Calm Calm - N/A Fog Fog
6:54 AM 56.3 °F - 55.8 °F 98% 29.94 in 0.2 mi Calm Calm - N/A Fog Fog
7:13 AM 57.2 °F - 56.7 °F 98% 29.94 in 0.2 mi Calm Calm - N/A Fog Fog
7:34 AM 57.7 °F - 57.4 °F 99% 29.94 in 0.2 mi Calm Calm - N/A Fog Fog
7:54 AM 58.1 °F - 57.7 °F 99% 29.94 in 0.5 mi NNW 6.9 mph - N/A Fog Fog
8:13 AM 58.1 °F - 57.7 °F 99% 29.95 in 0.8 mi NW 6.9 mph - N/A   Overcast
8:34 AM 58.3 °F - 58.1 °F 99% 29.96 in 7.0 mi NW 4.6 mph - N/A   Overcast
8:54 AM 58.5 °F - 58.1 °F 99% 29.96 in 0.5 mi NNE 5.8 mph - N/A Fog Fog
9:13 AM 55.6 °F - 55.4 °F 99% 29.96 in 0.2 mi ENE 8.1 mph - N/A Fog Fog
9:34 AM 54.7 °F - 54.3 °F 99% 29.97 in 0.5 mi ENE 6.9 mph - N/A Fog Fog
9:54 AM 54.9 °F - 54.5 °F 99% 29.97 in 0.8 mi NE 6.9 mph - N/A   Overcast
10:13 AM 54.9 °F - 54.5 °F 99% 29.97 in 0.8 mi NE 6.9 mph - N/A   Overcast
10:34 AM 55.8 °F - 55.4 °F 99% 29.96 in 0.8 mi North - - N/A   Overcast
10:54 AM 55.0 °F - 54.7 °F 99% 29.97 in 4.0 mi NE 11.5 mph - N/A   Overcast
11:13 AM 55.6 °F - 55.2 °F 99% 29.98 in 4.0 mi NE 8.1 mph - N/A   Overcast
11:34 AM 55.0 °F - 54.7 °F 99% 29.98 in 1.2 mi NNE 6.9 mph - N/A   Overcast
11:53 AM 54.9 °F - 54.3 °F 98% 29.99 in 5.0 mi NE 8.1 mph - N/A   Overcast
12:13 PM 55.4 °F - 54.5 °F 97% 29.99 in 7.0 mi ENE 4.6 mph - N/A   Overcast
12:34 PM 56.1 °F - 54.3 °F 94% 30.01 in 7.0 mi North - - N/A   Overcast
12:53 PM 57.2 °F - 55.0 °F 92% 30.01 in 10.0 mi NNE 5.8 mph - N/A   Overcast
1:13 PM 59.0 °F - 55.4 °F 88% 30.01 in 10.0 mi NNE 11.5 mph - N/A   Overcast
1:34 PM 58.6 °F - 54.5 °F 86% 30.02 in 10.0 mi North 9.2 mph - N/A   Overcast
1:53 PM 59.0 °F - 54.0 °F 83% 30.02 in 10.0 mi North 11.5 mph - N/A   Overcast
2:13 PM 57.9 °F - 53.2 °F 84% 30.04 in 10.0 mi NNE 8.1 mph - N/A   Overcast
2:34 PM 55.4 °F - 52.5 °F 90% 30.04 in 10.0 mi NNE 10.4 mph - N/A   Overcast
2:53 PM 55.4 °F - 52.0 °F 88% 30.05 in 10.0 mi NE 6.9 mph - N/A   Overcast
3:13 PM 55.4 °F - 50.4 °F 83% 30.06 in 10.0 mi NNE 9.2 mph - N/A   Overcast
3:34 PM 55.9 °F - 50.0 °F 80% 30.06 in 10.0 mi NNE 5.8 mph - N/A   Overcast
3:53 PM 57.7 °F - 50.5 °F 77% 30.05 in 10.0 mi North 5.8 mph - N/A   Overcast
4:13 PM 58.8 °F - 48.9 °F 70% 30.04 in 10.0 mi NNE 11.5 mph - N/A   Overcast
4:34 PM 60.3 °F - 48.6 °F 65% 30.04 in 10.0 mi NNE 13.8 mph 17.3 mph N/A   Overcast
4:53 PM 59.9 °F - 47.7 °F 64% 30.03 in 10.0 mi NE 13.8 mph - N/A   Mostly Cloudy
5:13 PM 61.0 °F - 47.5 °F 61% 30.03 in 10.0 mi NNE 15.0 mph - N/A   Scattered Clouds
5:34 PM 60.1 °F - 47.1 °F 62% 30.03 in 10.0 mi NNE 13.8 mph - N/A   Scattered Clouds
5:53 PM 60.1 °F - 46.2 °F 60% 30.03 in 10.0 mi NE 13.8 mph - N/A   Scattered Clouds
6:14 PM 59.0 °F - 45.1 °F 60% 30.04 in 10.0 mi NNE 11.5 mph 17.3 mph N/A   Overcast
6:33 PM 59.0 °F - 45.3 °F 60% 30.05 in 10.0 mi NE 13.8 mph - N/A   Scattered Clouds
6:53 PM 58.3 °F - 44.6 °F 60% 30.04 in 10.0 mi NNE 11.5 mph - N/A   Clear
7:14 PM 58.3 °F - 43.9 °F 59% 30.05 in 10.0 mi NNE 13.8 mph - N/A   Clear
7:34 PM 58.1 °F - 43.7 °F 59% 30.05 in 10.0 mi NNE 11.5 mph - N/A   Clear
7:53 PM 57.0 °F - 43.5 °F 61% 30.05 in 10.0 mi NNE 10.4 mph - N/A   Clear
8:14 PM 56.1 °F - 43.3 °F 62% 30.04 in 10.0 mi NNE 8.1 mph - N/A   Clear
8:33 PM 54.9 °F - 43.2 °F 65% 30.05 in 10.0 mi NE 6.9 mph - N/A   Clear
8:53 PM 53.1 °F - 43.3 °F 70% 30.05 in 10.0 mi NE 6.9 mph - N/A   Clear
9:14 PM 51.6 °F - 43.2 °F 73% 30.06 in 10.0 mi ENE 3.5 mph - N/A   Clear
9:34 PM 50.9 °F - 43.0 °F 74% 30.06 in 10.0 mi ENE 4.6 mph - N/A   Clear
9:53 PM 49.5 °F - 42.8 °F 78% 30.06 in 10.0 mi NNE 5.8 mph - N/A   Clear
10:14 PM 50.5 °F - 43.7 °F 77% 30.07 in 10.0 mi North 5.8 mph - N/A   Clear
10:33 PM 50.0 °F - 43.9 °F 79% 30.06 in 10.0 mi North 5.8 mph - N/A   Clear
10:53 PM 50.0 °F - 43.2 °F 77% 30.08 in 10.0 mi NNE 6.9 mph - N/A   Clear
11:14 PM 48.9 °F - 43.2 °F 80% 30.09 in 10.0 mi North 3.5 mph - N/A   Clear
11:33 PM 48.0 °F - 43.0 °F 83% 30.09 in 10.0 mi North 3.5 mph - N/A   Clear
11:53 PM 46.2 °F 42.7 °F 42.1 °F 85% 30.10 in 10.0 mi North 6.9 mph - N/A   Clear